| time (UTC) | temp F | wind direction | speed MPH | gust MPH | rain 1hr in | rain 24hr in | rain mn in | humidity % | barometer mb |
| 20260504045300 | 52 | 0 | 0.0 | 0.0 | 0.00 | 0.00 | 0.00 | 65 | 993.4 |
| 20260504043759 | 52 | 0 | 0.0 | 0.0 | 0.00 | 0.00 | 0.00 | 64 | 993.5 |
| 20260504042256 | 52 | 0 | 0.0 | 0.0 | 0.00 | 0.00 | 0.00 | 63 | 993.5 |
| 20260504040754 | 52 | 0 | 0.0 | 0.0 | 0.00 | 0.00 | 0.00 | 62 | 993.5 |
| 20260504035254 | 53 | 0 | 0.0 | 0.0 | 0.00 | 0.00 | 0.00 | 59 | 993.4 |
| 20260504033755 | 53 | 0 | 0.0 | 0.0 | 0.00 | 0.00 | 0.00 | 58 | 993.4 |
| 20260504032254 | 53 | 0 | 0.0 | 0.0 | 0.00 | 0.00 | 0.00 | 57 | 993.6 |
| 20260504025253 | 54 | 0 | 0.0 | 0.0 | 0.00 | 0.00 | 0.00 | 56 | 993.4 |
| 20260504023754 | 54 | 0 | 0.0 | 0.0 | 0.00 | 0.00 | 0.00 | 55 | 993.3 |
| 20260504022254 | 54 | 0 | 0.0 | 0.0 | 0.00 | 0.00 | 0.00 | 55 | 993.1 |
| 20260504020754 | 55 | 0 | 0.0 | 0.0 | 0.00 | 0.00 | 0.00 | 53 | 993.2 |
| 20260504015252 | 55 | 0 | 0.0 | 0.0 | 0.00 | 0.00 | 0.00 | 55 | 993.2 |
| 20260504013752 | 55 | 0 | 0.0 | 0.0 | 0.00 | 0.00 | 0.00 | 54 | 993.1 |
| 20260504012252 | 55 | 0 | 0.0 | 0.0 | 0.00 | 0.00 | 0.00 | 53 | 993.0 |
| 20260504010750 | 56 | 0 | 0.0 | 0.0 | 0.00 | 0.00 | 0.00 | 54 | 992.8 |
| 20260504005247 | 56 | 0 | 0.0 | 0.0 | 0.00 | 0.00 | 0.00 | 53 | 992.6 |
| 20260504003737 | 56 | 0 | 0.0 | 0.0 | 0.00 | 0.00 | 0.00 | 50 | 992.5 |
| 20260504002237 | 58 | 0 | 0.0 | 0.0 | 0.00 | 0.00 | 0.00 | 52 | 992.5 |
| 20260504000738 | 59 | 0 | 0.0 | 0.0 | 0.00 | 0.00 | 0.00 | 51 | 992.4 |
| 20260503235231 | 60 | 0 | 0.0 | 0.0 | 0.00 | 0.00 | 0.00 | 48 | 992.3 |
| 20260503233732 | 61 | 0 | 0.0 | 0.0 | 0.00 | 0.00 | 0.00 | 46 | 992.1 |
| 20260503232231 | 62 | 0 | 0.0 | 0.0 | 0.00 | 0.00 | 0.00 | 45 | 992.1 |
| 20260503230731 | 62 | 0 | 0.0 | 0.0 | 0.00 | 0.00 | 0.00 | 44 | 992.1 |
| 20260503225229 | 63 | 0 | 0.0 | 0.0 | 0.00 | 0.00 | 0.00 | 42 | 992.2 |
| 20260503222227 | 64 | 0 | 0.0 | 0.0 | 0.00 | 0.00 | 0.00 | 40 | 992.5 |
| 20260503220727 | 64 | 0 | 0.0 | 0.0 | 0.00 | 0.00 | 0.00 | 35 | 992.5 |
| 20260503215227 | 64 | 0 | 0.0 | 0.0 | 0.00 | 0.00 | 0.00 | 37 | 992.5 |
| 20260503213725 | 64 | 0 | 0.0 | 0.0 | 0.00 | 0.00 | 0.00 | 35 | 992.5 |
| 20260503212225 | 64 | 0 | 0.0 | 0.0 | 0.00 | 0.00 | 0.00 | 38 | 992.6 |
| 20260503210722 | 64 | 0 | 0.0 | 0.0 | 0.00 | 0.00 | 0.00 | 36 | 992.7 |
| 20260503205219 | 64 | 0 | 0.0 | 0.0 | 0.00 | 0.00 | 0.00 | 38 | 992.8 |
| 20260503202217 | 65 | 0 | 0.0 | 0.0 | 0.00 | 0.00 | 0.00 | 38 | 993.0 |
| 20260503200717 | 64 | 0 | 0.0 | 0.0 | 0.00 | 0.00 | 0.00 | 36 | 993.1 |
| 20260503195213 | 65 | 0 | 0.0 | 0.0 | 0.00 | 0.00 | 0.00 | 36 | 993.3 |
| 20260503192208 | 65 | 0 | 0.0 | 0.0 | 0.00 | 0.00 | 0.00 | 37 | 993.6 |
| 20260503190708 | 65 | 0 | 0.0 | 0.0 | 0.00 | 0.00 | 0.00 | 36 | 993.8 |
| 20260503185207 | 66 | 0 | 0.0 | 0.0 | 0.00 | 0.00 | 0.00 | 34 | 994.0 |
| 20260503183704 | 66 | 0 | 0.0 | 0.0 | 0.00 | 0.00 | 0.00 | 37 | 994.1 |
| 20260503182205 | 66 | 0 | 0.0 | 0.0 | 0.00 | 0.00 | 0.00 | 35 | 994.3 |
| 20260503180702 | 66 | 0 | 0.0 | 0.0 | 0.00 | 0.00 | 0.00 | 33 | 994.5 |
| 20260503175203 | 66 | 0 | 0.0 | 0.0 | 0.00 | 0.00 | 0.00 | 35 | 994.4 |
| 20260503173701 | 65 | 0 | 0.0 | 0.0 | 0.00 | 0.00 | 0.00 | 35 | 994.7 |
| 20260503172156 | 66 | 0 | 0.0 | 0.0 | 0.00 | 0.00 | 0.00 | 36 | 994.8 |
| 20260503170654 | 64 | 0 | 0.0 | 0.0 | 0.00 | 0.00 | 0.00 | 39 | 995.1 |
| 20260503130643 | 47 | 0 | 0.0 | 0.0 | 0.00 | 0.00 | 0.00 | 77 | 995.6 |
| 20260503080617 | 43 | 0 | 0.0 | 0.0 | 0.00 | 0.00 | 0.00 | 84 | 992.3 |
| 20260503070611 | 44 | 0 | 0.0 | 0.0 | 0.00 | 0.00 | 0.00 | 85 | 991.7 |